Regional Weather Roundup
Issued by NWS

Home | Current Version | Previous Version | Graphics & Text | Print | Product List | Glossary On
Versions: 1 2 3 4 5 6 7 8 9 10 11 12 13 14 15 16 17 18 19 20 21 22 23 24 25 26 27 28 29 30 31 32 33 34 35 36 37 38 39 40 41 42 43 44 45 46 47 48 49 50
000
ASUS45 KTFX 300004
RWRMT
MONTANA HOURLY WEATHER ROUNDUP
NATIONAL WEATHER SERVICE GREAT FALLS MT
504 PM MST THU JAN 29 2015

NOTE: "FAIR" INDICATES FEW OR NO CLOUDS BELOW 12000 FEET WITH NO
SIGNIFICANT WEATHER AND/OR OBSTRUCTIONS TO VISIBILITY.

* THESE STATIONS ARE NOT UNDER NWS QUALITY CONTROL. THEY DO NOT
   REPORT WEATHER SUCH AS PRECIPITATION OR FOG.

MTZ001>007-043-300100-
WEST OF THE DIVIDE
CITY           SKY/WX    TMP DP  RH WIND       PRES   REMARKS
KALISPELL      CLEAR     30  27  89 CALM      30.35S
MISSOULA       PTCLDY    36  25  64 CALM      30.34F
BUTTE          PTCLDY    37  23  57 CALM      30.29S
MULLAN PASS    PTCLDY    34  19  54 CALM      30.29S
* ANACONDA     PTCLDY    37  27  67 N6         N/A   WCI  32
* ESSEX        N/A       31  25  78 W1         N/A
* LINCOLN      N/A       44  19  37 SW3G11     N/A
* LOOKOUT PASS N/A       36  24  62 NW4        N/A
* POLSON       N/A       32  29  89 N/A        N/A
* RONAN APT    PTCLDY    30  30 100 S5         N/A   WCI  25
* SEELEY LAKE  N/A       44  23  43 S2         N/A
* THOMP F APT  PTCLDY    36  19  50 E3         N/A
$$

MTZ008-052>055-300100-
SOUTHWEST MONTANA
CITY           SKY/WX    TMP DP  RH WIND       PRES   REMARKS
BOZEMAN        PTCLDY    37  25  62 SE3       30.30S
DILLON         MOCLDY    36  25  64 S6        30.30S WCI  31
* W YELLOWSTON PTCLDY    34  27  76 SW2        N/A
* THREE FORKS  PTCLDY    43  30  60 N/A        N/A
* BOULDER HILL N/A       37  20  50 S8         N/A   WCI  31
* MONIDA PASS  N/A       19  19 100 W4         N/A
* RAYNOLDS PAS N/A       27  10  49 SE12       N/A   WCI  16
* WHITEHALL    N/A       46  22  39 NW4        N/A
* WISE RIVER   N/A       32  20  61 W5         N/A   WCI  27
$$

MTZ009>010-012-014-046-048-049-054-300100-
EAST SLOPES AND CENTRAL MONTANA
CITY           SKY/WX    TMP DP  RH WIND       PRES   REMARKS
CUT BANK       PTCLDY    43  12  28 W14       30.17F
GREAT FALLS    CLOUDY    45  19  35 SW13      30.20S
HELENA         PTCLDY    39  28  65 NW5       30.28F WCI  35
MALMSTROM AFB  CLOUDY    43  21  42 SW12      30.21S
* DEARBORN     N/A       49  18  29 S7         N/A
* EAST GLACIER N/A       40   9  28 W27G35     N/A   WCI  29
* MONARCH      N/A       42   5  21 SW10       N/A
* PENDROY      N/A       46  11  24 NW7        N/A
* ROGERS PASS  N/A       38  14  37 SE9G19     N/A   WCI  32
* SWEET GRASS  N/A       33  33 100 S12        N/A   WCI  24
$$

MTZ011-013-016-021-035-040-045-047-050-051-300100-
NORTH CENTRAL MONTANA
CITY           SKY/WX    TMP DP  RH WIND       PRES   REMARKS
HAVRE          PTCLDY    36  28  73 E3        30.20F
LEWISTOWN      PTCLDY    45  21  38 CALM      30.22R
* N BAR RANCH  CLEAR     41  23  49 CALM      30.22F
* CHESTER      N/A       35  30  82 S1         N/A
* DENTON       N/A       41  22  47 SE4        N/A
* GEYSER       N/A       44  18  35 S6         N/A
* JUDITH GAP   N/A       41  24  51 SE14       N/A
* LOMA         N/A       39  32  76 NE9        N/A   WCI  33
$$

MTZ017>020-022>027-061-062-300100-
NORTHEAST MONTANA
CITY           SKY/WX    TMP DP  RH WIND       PRES   REMARKS
GLASGOW        CLEAR     34  28  79 E13       30.26F WCI  25
GLENDIVE       CLEAR     36  25  64 SE3       30.35S
JORDAN         CLEAR     39  27  62 CALM      30.27R
SIDNEY         CLEAR     34  25  70 CALM      30.38F
WOLF POINT     CLEAR     34  27  76 E7        30.31F WCI  28
* BEAVER HILL  N/A       36  23  59 S10        N/A   WCI  29
* CIRCLE       N/A       42  28  58 N/A        N/A
* NAVAJO       N/A       29  23  78 SE8        N/A   WCI  21
* SACO         N/A       30  29  96 NE9        N/A   WCI  22
$$

MTZ028>042-056>058-300100-
SOUTHCENTRAL AND SOUTHEAST MONTANA
CITY           SKY/WX    TMP DP  RH WIND       PRES   REMARKS
BAKER          CLEAR     34  16  48 S6        30.35S WCI  29
BILLINGS       FAIR      46  27  48 W10       30.26S
LIVINGSTON     PTCLDY    46  19  34 W23G29    30.25R
MILES CITY     CLEAR     41  21  45 SE9       30.30F
* LAUREL APT   CLEAR     46  25  44 SW8        N/A
* ROUNDUP APT  CLEAR     48  21  34 S9         N/A
* ALZADA       N/A       42  22  45 E1         N/A
* HYSHAM       N/A       44  17  34 S1G6       N/A
* LAME DEER    N/A       41  21  45 S6         N/A
* REED POINT   N/A       44  21  40 NE2        N/A
* ROSCOE HILL  N/A       38  21  50 SE7        N/A   WCI  33
$$

REGIONAL REPORTS...DAKOTAS
CITY           SKY/WX    TMP DP  RH WIND       PRES   REMARKS
WILLISTON      CLEAR     28  19  69 E6        30.38F WCI  21
DICKINSON      CLEAR     34  18  52 E5        30.35S WCI  29
CROSBY         FAIR      23  21  92 E6        30.39F WCI  16
WATFORD CITY   CLEAR     28  25  89 SE6       30.37S WCI  21
BISMARCK       PTCLDY    25  19  78 NE7       30.47R WCI  17
GRAND FORKS    FAIR       9   1  70 N8        30.57R WCI  -3
FARGO          CLEAR     14   5  67 N9        30.55R WCI   2
BUFFALO SD     CLEAR     37   9  31 SE6       30.30F WCI  32
RAPID CITY     CLEAR     36  16  44 E5        30.39S WCI  32
$$

REGIONAL REPORTS...WYOMING/IDAHO/WASHINGTON
CITY           SKY/WX    TMP DP  RH WIND       PRES   REMARKS
GILLETTE       CLEAR     39  25  57 S9        30.30F WCI  33
SHERIDAN       CLEAR     43  25  49 E3        30.28S
CODY           CLEAR     39  30  70 SE7       30.29S WCI  34
YELLOWSTONE LA PTCLDY    19  16  88 CALM      30.36S
SALMON         MOCLDY    30  21  69 CALM      30.38S
MULLAN PASS    PTCLDY    34  19  54 CALM      30.29S
SAND POINT     CLEAR     37  32  82 CALM      30.38R
SPOKANE        FOG       32  32 100 NW3       30.36R VSB 2
$$

REGIONAL REPORTS...SASKATCHEWAN
CITY           SKY/WX    TMP DP  RH WIND       PRES   REMARKS
SWIFT CURRENT  FOG       27  27 100 SE10      30.19F VSB 2 1/4 WCI  18

$$




USA.gov is the U.S. government's official web portal to all federal, state and local government web resources and services.